CW9259 Weather Reports


Display with metric or nautical units.
time (UTC)temp
F
wind
direction
speed
MPH
gust
MPH
rain 1hr
in
rain 24hr
in
rain mn
in
humidity
%
barometer
mb
20260905174603 81 207 0.0 2.0 0.00 0.00 0.00 66 1013.2
20260905173135 82 207 1.0 2.0 0.00 0.00 0.00 63 1013.2
20260905171558 84 207 0.0 2.0 0.00 0.00 0.00 61 1013.0
20260905170122 86 207 2.0 3.0 0.00 0.00 0.00 57 1013.0
20260905164559 89 124 0.0 2.0 0.00 0.00 0.00 51 1013.0
20260905163133 91 117 0.0 6.0 0.00 0.00 0.00 46 1013.1
20260905161558 91 64 1.0 3.0 0.00 0.00 0.00 47 1013.0
20260905160135 92 65 2.0 5.0 0.00 0.00 0.00 46 1012.9
20260905154603 92 117 1.0 4.0 0.00 0.00 0.00 47 1012.9
20260905153125 93 138 2.0 4.0 0.00 0.00 0.00 43 1012.9
20260905151620 93 119 1.0 6.0 0.00 0.00 0.00 43 1012.9
20260905150131 93 127 1.0 5.0 0.00 0.00 0.00 45 1013.0
20260905144558 93 144 0.0 7.0 0.00 0.00 0.00 42 1013.1
20260905143122 93 168 2.0 7.0 0.00 0.00 0.00 42 1013.1
20260905141558 93 96 4.0 9.0 0.00 0.00 0.00 41 1013.3
20260905140129 92 117 3.0 8.0 0.00 0.00 0.00 46 1013.2
20260905134559 92 64 3.0 6.0 0.00 0.00 0.00 44 1013.3
20260905133132 91 167 3.0 9.0 0.00 0.00 0.00 44 1013.4
20260905131606 91 121 3.0 9.0 0.00 0.00 0.00 45 1013.5
20260905130138 91 148 2.0 9.0 0.00 0.00 0.00 47 1013.6
20260905124558 90 148 4.0 11.0 0.00 0.00 0.00 47 1013.7
20260905123128 90 307 2.0 9.0 0.00 0.00 0.00 48 1013.7
20260905121558 90 123 5.0 10.0 0.00 0.00 0.00 50 1013.7
20260905120137 89 101 5.0 11.0 0.00 0.00 0.00 51 1013.8
20260905114558 89 103 6.0 11.0 0.00 0.00 0.00 50 1013.9
20260905113125 88 137 4.0 9.0 0.00 0.00 0.00 53 1013.9
20260905111601 88 124 5.0 11.0 0.00 0.00 0.00 52 1013.9
20260905110129 89 142 2.0 10.0 0.00 0.00 0.00 52 1014.0
20260905104559 88 109 5.0 10.0 0.00 0.00 0.00 52 1014.2
20260905103141 87 121 2.0 9.0 0.00 0.00 0.00 54 1014.3
20260905101559 87 128 4.0 9.0 0.00 0.00 0.00 53 1014.2
20260905100128 86 177 3.0 9.0 0.00 0.00 0.00 54 1014.4
20260905094559 86 114 4.0 8.0 0.00 0.00 0.00 56 1014.5
20260905093138 84 113 3.0 8.0 0.00 0.00 0.00 57 1014.4
20260905091603 83 162 4.0 8.0 0.00 0.00 0.00 61 1014.5
20260905090128 81 87 2.0 8.0 0.00 0.00 0.00 66 1014.5
20260905084609 79 184 2.0 7.0 0.00 0.00 0.00 68 1014.3
20260905083133 76 245 2.0 6.0 0.00 0.00 0.00 71 1014.3
20260905081558 75 155 1.0 3.0 0.00 0.00 0.00 76 1014.3
20260905080142 75 355 2.0 3.0 0.00 0.00 0.00 74 1014.3
20260905074603 76 360 0.0 3.0 0.00 0.00 0.00 68 1014.1
20260905073132 76 117 0.0 3.0 0.00 0.00 0.00 67 1014.1
20260905071604 75 128 1.0 3.0 0.00 0.00 0.00 70 1014.0
20260905070139 73 40 0.0 3.0 0.00 0.00 0.00 71 1014.1
20260905064602 72 39 0.0 2.0 0.00 0.00 0.00 75 1014.2
20260905063133 69 36 2.0 3.0 0.00 0.00 0.00 78 1014.2
20260905061600 67 348 0.0 1.0 0.00 0.00 0.00 82 1014.1
20260905060133 66 348 1.0 3.0 0.00 0.00 0.00 87 1014.0
20260905054611 65 311 2.0 3.0 0.00 0.00 0.00 87 1013.9
20260905053121 63 339 0.0 4.0 0.00 0.00 0.00 88 1013.8
20260905051600 62 335 2.0 4.0 0.00 0.00 0.00 88 1013.6
20260905050130 62 284 2.0 4.0 0.00 0.00 0.00 89 1013.4
20260905044605 62 355 0.0 3.0 0.00 0.00 0.00 88 1013.3
20260905043139 62 336 0.0 2.0 0.00 0.00 0.00 88 1013.2
20260905041559 62 309 2.0 3.0 0.00 0.00 0.00 88 1013.3
20260905040003 62 314 1.0 3.0 0.00 0.00 0.00 88 1013.3
20260905034602 63 332 0.0 0.0 0.00 0.00 0.00 87 1013.4
20260905033132 63 332 1.0 3.0 0.00 0.00 0.00 87 1013.4
20260905031600 63 336 1.0 3.0 0.00 0.00 0.00 86 1013.5
20260905030003 63 298 2.0 3.0 0.00 0.00 0.00 87 1013.3
20260905024559 63 298 2.0 3.0 0.00 0.00 0.00 87 1013.5
20260905023125 63 295 2.0 4.0 0.00 0.00 0.00 86 1013.5
20260905021559 64 302 0.0 2.0 0.00 0.00 0.00 86 1013.6
20260905020001 64 302 0.0 2.0 0.00 0.00 0.00 86 1013.5
20260905014600 64 303 1.0 2.0 0.00 0.00 0.00 87 1013.6
20260905013123 64 303 0.0 2.0 0.00 0.00 0.00 85 1013.5
20260905011618 65 303 1.0 3.0 0.00 0.00 0.00 85 1013.5
20260905010000 65 303 0.0 3.0 0.00 0.00 0.00 85 1013.6
20260905004601 65 303 0.0 2.0 0.00 0.00 0.00 85 1013.7
20260905003135 65 303 0.0 2.0 0.00 0.00 0.00 85 1013.7
20260905001610 65 305 1.0 3.0 0.00 0.00 0.00 85 1013.9
20260905000122 66 305 0.0 2.0 0.00 0.00 0.00 84 1014.1
20260904234600 66 304 1.0 3.0 0.00 0.00 0.00 84 1014.1
20260904233129 66 304 0.0 2.0 0.00 0.00 0.00 84 1014.1
20260904231602 67 304 1.0 3.0 0.00 0.00 0.00 83 1014.2
20260904230003 68 304 0.0 3.0 0.00 0.00 0.00 82 1014.2
20260904224559 68 304 0.0 3.0 0.00 0.00 0.00 81 1014.3
20260904223122 70 328 1.0 3.0 0.00 0.00 0.00 79 1014.1
20260904221558 70 331 3.0 4.0 0.00 0.00 0.00 78 1014.2
20260904220131 70 340 3.0 4.0 0.00 0.00 0.00 79 1014.2
20260904214558 69 331 3.0 4.0 0.00 0.00 0.00 81 1014.4
20260904213123 68 304 0.0 0.0 0.00 0.00 0.00 82 1014.4
20260904211559 69 304 0.0 2.0 0.00 0.00 0.00 82 1014.4
20260904210001 69 304 0.0 2.0 0.00 0.00 0.00 81 1014.4
20260904204559 69 304 1.0 3.0 0.00 0.00 0.00 80 1014.4
20260904203142 70 304 2.0 3.0 0.00 0.00 0.00 79 1014.5
20260904201620 70 292 0.0 3.0 0.00 0.00 0.00 78 1014.6
20260904200127 70 292 0.0 2.0 0.00 0.00 0.00 78 1014.5
20260904194559 71 291 0.0 2.0 0.00 0.00 0.00 78 1014.4
20260904193132 71 291 0.0 3.0 0.00 0.00 0.00 77 1014.5
20260904191558 72 290 1.0 3.0 0.00 0.00 0.00 76 1014.3
20260904190000 73 313 0.0 1.0 0.00 0.00 0.00 75 1014.1
20260904184600 74 310 327.0 2.0 0.00 0.00 0.00 74 1013.9
20260904183128 75 327.0 255.0 0.00 0.00 0.00 72 1013.6
20260904181602 76 327.0 255.0 0.00 0.00 0.00 70 1013.6
20260904180004 78 327.0 255.0 0.00 0.00 0.00 67 1013.5